From 07/08/2018 00:00 to 07/24/2018 00:00

Date LAKE ELEVATION [FT] PRECIPITATION INCREMENT [IN] PRECIPITATION TOTAL [IN] AIR TEMPERATURE [F] RELATIVE HUMIDITY [%] RELEASE [CFS]
07/22/2018 17:00 -- -- -- -- -- 0.0
07/22/2018 16:00 115.74 0.01 -- 75.0 -- 0.0
07/22/2018 15:00 115.74 0.01 -- 74.0 -- 0.0
07/22/2018 14:00 115.73 0.03 -- 70.0 -- 0.0
07/22/2018 13:00 115.73 0.01 -- 69.0 -- 0.0
07/22/2018 12:00 115.73 0.04 -- 67.0 -- 0.0
07/22/2018 11:00 115.73 0.04 -- 66.0 -- 0.0
07/22/2018 10:00 115.72 0.12 -- 65.0 -- 0.0
07/22/2018 09:00 115.72 0.01 -- 65.0 -- 0.0
07/22/2018 08:00 115.72 0.00 -- 65.0 -- 0.0
07/22/2018 07:00 115.72 0.00 -- 65.0 -- 0.0
07/22/2018 06:00 115.72 0.00 -- 64.0 -- 0.0
07/22/2018 05:00 115.72 0.00 -- 63.0 -- 0.0
07/22/2018 04:00 115.72 0.00 -- 63.0 -- 0.0
07/22/2018 03:00 115.72 0.00 -- 62.0 -- 0.0
07/22/2018 02:00 115.72 0.00 -- 62.0 -- 0.0
07/22/2018 01:00 115.72 0.00 -- 62.0 -- 0.0
07/22/2018 00:00 115.73 0.00 -- 63.0 -- 0.0
07/21/2018 23:00 115.72 0.00 -- 62.0 -- 0.0
07/21/2018 22:00 115.73 0.00 -- 64.0 -- 0.0
07/21/2018 21:00 115.73 0.00 -- 67.0 -- 0.0
07/21/2018 20:00 115.72 0.00 -- 69.0 -- 0.0
07/21/2018 19:00 115.72 0.00 -- 70.0 -- 0.0
07/21/2018 18:00 115.72 0.00 -- 74.0 -- 0.0
07/21/2018 17:00 115.73 0.00 -- 75.0 -- 0.0
07/21/2018 16:00 115.72 0.00 -- 75.0 -- 0.0
07/21/2018 15:00 115.72 0.00 -- 75.0 -- 0.0
07/21/2018 14:00 115.73 0.00 -- 74.0 -- 0.0
07/21/2018 13:00 115.73 0.00 -- 75.0 -- 0.0
07/21/2018 12:00 115.73 0.00 -- 74.0 -- 0.0
07/21/2018 11:00 115.74 0.00 -- 74.0 -- 0.0
07/21/2018 10:00 115.74 0.00 -- 71.0 -- 0.0
07/21/2018 09:00 115.74 0.00 -- 65.0 -- 0.0
07/21/2018 08:00 115.74 0.00 -- 57.0 -- 0.0
07/21/2018 07:00 115.74 0.00 -- 54.0 -- 0.0
07/21/2018 06:00 115.74 0.00 -- 54.0 -- 0.0
07/21/2018 05:00 115.74 0.00 -- 55.0 -- 0.0
07/21/2018 04:00 115.74 0.00 -- 56.0 -- 0.0
07/21/2018 03:00 115.74 0.00 -- 57.0 -- 0.0
07/21/2018 02:00 115.74 0.00 -- 58.0 -- 0.0
07/21/2018 01:00 115.74 0.00 -- 59.0 -- 0.3
07/21/2018 00:00 115.75 0.00 0.00 61.0 -- 0.0
07/20/2018 23:00 115.75 0.00 -- 63.0 -- 0.5
07/20/2018 22:00 115.74 0.00 -- 67.0 -- 0.0
07/20/2018 21:00 115.75 0.00 -- 71.0 -- 0.0
07/20/2018 20:00 115.74 0.00 -- 75.0 -- 0.0
07/20/2018 19:00 115.74 0.00 -- 78.0 -- 0.0
07/20/2018 18:00 115.74 0.00 -- 80.0 -- 0.0
07/20/2018 17:00 115.75 0.00 -- 80.0 -- 0.0
07/20/2018 16:00 115.74 0.00 -- 80.0 -- 0.0
07/20/2018 15:00 115.74 0.00 -- 80.0 -- 0.8
07/20/2018 14:00 115.75 0.00 -- 81.0 -- 1.0
07/20/2018 13:00 115.76 0.00 -- 80.0 -- 1.0
07/20/2018 12:00 115.76 0.00 -- 79.0 -- 1.0
07/20/2018 11:00 115.76 0.00 -- 74.0 -- 1.0
07/20/2018 10:00 115.76 0.00 -- 70.0 -- 1.0
07/20/2018 09:00 115.76 0.00 -- 66.0 -- 1.0
07/20/2018 08:00 115.76 0.00 -- 58.0 -- 1.0
07/20/2018 07:00 115.76 0.00 -- 54.0 -- 1.0
07/20/2018 06:00 115.76 0.00 -- 54.0 -- 1.0
07/20/2018 05:00 115.76 0.00 -- 55.0 -- 1.0
07/20/2018 04:00 115.76 0.00 -- 55.0 -- 1.0
07/20/2018 03:00 115.76 0.00 -- 56.0 -- 1.0
07/20/2018 02:00 115.76 0.00 -- 58.0 -- 1.0
07/20/2018 01:00 115.76 0.00 -- 60.0 -- 1.0
07/20/2018 00:00 115.76 0.00 0.00 61.0 -- 1.0
07/19/2018 23:00 115.76 0.00 -- 64.0 -- 1.0
07/19/2018 22:00 115.76 0.00 -- 66.0 -- 1.0
07/19/2018 21:00 115.76 0.00 -- 71.0 -- 1.0
07/19/2018 20:00 115.76 0.00 -- 74.0 -- 1.0
07/19/2018 19:00 115.77 0.00 -- 77.0 -- 1.0
07/19/2018 18:00 115.76 0.00 -- 78.0 -- 1.3
07/19/2018 17:00 115.77 0.00 -- 78.0 -- 2.0
07/19/2018 16:00 115.77 0.00 -- 78.0 -- 2.0
07/19/2018 15:00 115.77 0.00 -- 77.0 -- 2.0
07/19/2018 14:00 115.78 0.00 -- 75.0 -- 2.0
07/19/2018 13:00 115.78 0.00 -- 75.0 -- 1.8
07/19/2018 12:00 115.78 0.00 -- 74.0 -- 2.0
07/19/2018 11:00 115.78 0.00 -- 72.0 -- 2.0
07/19/2018 10:00 115.78 0.00 -- 68.0 -- 2.0
07/19/2018 09:00 115.78 0.00 -- 64.0 -- 2.0
07/19/2018 08:00 115.78 0.00 -- 57.0 -- 2.0
07/19/2018 07:00 115.78 0.00 -- 53.0 -- 2.0
07/19/2018 06:00 115.78 0.00 -- 54.0 -- 2.0
07/19/2018 05:00 115.78 0.00 -- 55.0 -- 2.0
07/19/2018 04:00 115.78 0.00 -- 57.0 -- 2.0
07/19/2018 03:00 115.78 0.00 -- 58.0 -- 2.0
07/19/2018 02:00 115.78 0.00 -- 59.0 -- 2.0
07/19/2018 01:00 115.78 0.00 -- 62.0 -- 2.0
07/19/2018 00:00 115.78 0.00 0.00 60.0 -- 2.0
07/18/2018 23:00 115.78 0.00 -- 62.0 -- 2.0
07/18/2018 22:00 115.78 0.00 -- 66.0 -- 2.8
07/18/2018 21:00 115.79 0.00 -- 72.0 -- 3.0
07/18/2018 20:00 115.79 0.00 -- 75.0 -- 3.0
07/18/2018 19:00 115.79 0.00 -- 77.0 -- 3.0
07/18/2018 18:00 115.80 0.00 -- 79.0 -- 3.5
07/18/2018 17:00 115.80 0.00 -- 78.0 -- 4.0
07/18/2018 16:00 115.81 0.00 -- 77.0 -- 4.3
07/18/2018 15:00 115.80 0.00 -- 77.0 -- 4.0
07/18/2018 14:00 115.81 0.00 -- 75.0 -- 4.0
07/18/2018 13:00 115.80 0.00 -- 74.0 -- 4.5
07/18/2018 12:00 115.80 0.00 -- 72.0 -- 4.8
07/18/2018 11:00 115.82 0.00 -- 71.0 -- 4.3
07/18/2018 10:00 115.81 0.00 -- 70.0 -- 4.0
07/18/2018 09:00 115.80 0.00 -- 69.0 -- 3.8
07/18/2018 08:00 115.80 0.00 -- 67.0 -- 3.8
07/18/2018 07:00 115.80 0.00 -- 68.0 -- 3.5
07/18/2018 06:00 115.80 0.00 -- 69.0 -- 4.0
07/18/2018 05:00 115.80 0.00 -- 69.0 -- 3.8
07/18/2018 04:00 115.80 0.00 -- 69.0 -- 3.5
07/18/2018 03:00 115.80 0.00 -- 70.0 -- 4.0
07/18/2018 02:00 115.81 0.00 -- 70.0 -- 4.0
07/18/2018 01:00 115.80 0.01 -- 70.0 -- 3.8
07/18/2018 00:00 115.80 0.06 0.01 70.0 -- 3.5
07/17/2018 23:00 115.79 0.00 -- 70.0 -- 3.0
07/17/2018 22:00 115.79 0.00 -- 70.0 -- 3.0
07/17/2018 21:00 115.79 0.01 -- 71.0 -- 2.8
07/17/2018 20:00 115.80 0.17 -- 71.0 -- 2.5
07/17/2018 19:00 115.77 0.15 -- 71.0 -- 1.0
07/17/2018 18:00 115.75 0.10 -- 71.0 -- 1.0
07/17/2018 17:00 115.74 0.13 -- 71.0 -- 0.0
07/17/2018 16:00 115.73 0.06 -- 71.0 -- 0.0
07/17/2018 15:00 115.73 0.55 -- 70.0 -- 0.3
07/17/2018 14:00 115.71 0.13 -- 71.0 -- 0.0
07/17/2018 13:00 115.69 0.00 -- 88.0 -- 0.0
07/17/2018 12:00 115.69 0.00 -- 86.0 -- 0.0
07/17/2018 11:00 115.69 0.00 -- 83.0 -- 0.0
07/17/2018 10:00 115.68 0.00 -- 81.0 -- 0.0
07/17/2018 09:00 115.68 0.00 -- 79.9 -- 0.0
07/17/2018 08:00 115.68 0.00 -- 78.8 -- 0.0
07/17/2018 07:00 115.68 0.00 -- 77.7 -- 0.0
07/17/2018 06:00 115.68 0.00 -- 76.6 -- 0.0
07/17/2018 05:00 115.68 0.00 -- 75.5 -- 0.0
07/17/2018 04:00 115.68 0.00 -- 74.5 -- 0.0
07/17/2018 03:00 115.68 0.00 -- 73.4 -- 0.0
07/17/2018 02:00 115.68 0.00 -- 72.3 -- 0.0
07/17/2018 01:00 115.68 0.00 -- 71.2 -- 0.0
07/17/2018 00:00 115.68 0.00 1.36 70.1 -- 0.0
07/16/2018 23:00 115.68 0.00 -- 69.0 -- 0.0
07/16/2018 22:00 115.69 0.00 -- 69.0 -- 0.0
07/16/2018 21:00 115.69 0.00 -- 71.0 -- 0.0
07/16/2018 20:00 115.69 0.00 -- 75.0 -- 0.0
07/16/2018 19:00 115.68 0.00 -- 77.0 -- 0.0
07/16/2018 18:00 115.69 0.00 -- 80.0 -- 0.0
07/16/2018 17:00 115.69 0.00 -- 82.0 -- 0.0
07/16/2018 16:00 115.69 0.00 -- 83.0 -- 0.0
07/16/2018 15:00 115.69 0.00 -- 82.0 -- 0.0
07/16/2018 14:00 115.70 0.00 -- 81.0 -- 0.0
07/16/2018 13:00 115.70 0.00 -- 80.0 -- 0.0
07/16/2018 12:00 115.70 0.00 -- 77.0 -- 0.0
07/16/2018 11:00 115.70 0.00 -- 73.0 -- 0.0
07/16/2018 10:00 115.70 0.00 -- 69.0 -- 0.0
07/16/2018 09:00 115.71 0.00 -- 66.0 -- 0.0
07/16/2018 08:00 115.70 0.00 -- 64.0 -- 0.0
07/16/2018 07:00 115.70 0.00 -- 63.0 -- 0.0
07/16/2018 06:00 115.71 0.00 -- 63.0 -- 0.0
07/16/2018 05:00 115.71 0.00 -- 62.0 -- 0.0
07/16/2018 04:00 115.70 0.00 -- 63.0 -- 0.0
07/16/2018 03:00 115.71 0.00 -- 64.0 -- 0.0
07/16/2018 02:00 115.71 0.00 -- 64.0 -- 0.0
07/16/2018 01:00 115.71 0.00 -- 65.0 -- 0.0
07/16/2018 00:00 115.71 0.00 0.00 66.0 -- 0.0
07/15/2018 23:00 115.70 0.00 -- 67.0 -- 0.0
07/15/2018 22:00 115.71 0.00 -- 68.0 -- 0.0
07/15/2018 21:00 115.71 0.00 -- 70.0 -- 0.0
07/15/2018 20:00 115.70 0.00 -- 73.0 -- 0.0
07/15/2018 19:00 115.70 0.00 -- 75.0 -- 0.0
07/15/2018 18:00 115.70 0.00 -- 75.0 -- 0.0
07/15/2018 17:00 115.71 0.00 -- 80.0 -- 0.0
07/15/2018 16:00 115.71 0.00 -- 80.0 -- 0.0
07/15/2018 15:00 115.72 0.00 -- 78.0 -- 0.0
07/15/2018 14:00 115.71 0.00 -- 76.0 -- 0.0
07/15/2018 13:00 115.71 0.00 -- 73.0 -- 0.0
07/15/2018 12:00 115.72 0.00 -- 69.0 -- 0.0
07/15/2018 11:00 115.72 0.00 -- 68.0 -- 0.0
07/15/2018 10:00 115.72 0.00 -- 67.0 -- 0.0
07/15/2018 09:00 115.71 0.00 -- 66.0 -- 0.0
07/15/2018 08:00 115.72 0.00 -- 65.0 -- 0.0
07/15/2018 07:00 115.72 0.00 -- 65.0 -- 0.0
07/15/2018 06:00 115.72 0.00 -- 65.0 -- 0.0
07/15/2018 05:00 115.72 0.03 -- 64.0 -- 0.0
07/15/2018 04:00 115.71 0.00 -- 64.0 -- 0.0
07/15/2018 03:00 115.72 0.00 -- 63.0 -- 0.0
07/15/2018 02:00 115.71 0.00 -- 64.0 -- 0.0
07/15/2018 01:00 115.72 0.00 -- 64.0 -- 0.0
07/15/2018 00:00 115.72 0.00 0.03 66.0 -- 0.0
07/14/2018 23:00 115.71 0.00 -- 66.0 -- 0.0
07/14/2018 22:00 115.71 0.00 -- 66.0 -- 0.0
07/14/2018 21:00 115.72 0.00 -- 68.0 -- 0.0
07/14/2018 20:00 115.71 0.00 -- 69.0 -- 0.0
07/14/2018 19:00 115.71 0.00 -- 71.0 -- 0.0
07/14/2018 18:00 115.71 0.00 -- 72.0 -- 0.0
07/14/2018 17:00 115.71 0.00 -- 72.0 -- 0.0
07/14/2018 16:00 115.72 0.00 -- 74.0 -- 0.0
07/14/2018 15:00 115.71 0.00 -- 75.0 -- 0.0
07/14/2018 14:00 115.72 0.00 -- 74.0 -- 0.0
07/14/2018 13:00 115.72 0.00 -- 74.0 -- 0.0
07/14/2018 12:00 115.73 0.00 -- 73.0 -- 0.0
07/14/2018 11:00 115.73 0.00 -- 71.0 -- 0.0
07/14/2018 10:00 115.73 0.00 -- 71.0 -- 0.0
07/14/2018 09:00 115.73 0.00 -- 68.0 -- 0.0
07/14/2018 08:00 115.73 0.00 -- 62.0 -- 0.0
07/14/2018 07:00 115.73 0.00 -- 59.0 -- 0.0
07/14/2018 06:00 115.73 0.00 -- 60.0 -- 0.0
07/14/2018 05:00 115.73 0.00 -- 60.0 -- 0.0
07/14/2018 04:00 115.73 0.00 -- 60.0 -- 0.0
07/14/2018 03:00 115.73 0.00 -- 62.0 -- 0.0
07/14/2018 02:00 115.73 0.00 -- 61.0 -- 0.0
07/14/2018 01:00 115.73 0.00 -- 62.0 -- 0.0
07/14/2018 00:00 115.74 0.00 0.00 64.0 -- 0.0
07/13/2018 23:00 115.73 0.00 -- 65.0 -- 0.0
07/13/2018 22:00 115.73 0.00 -- 66.0 -- 0.0
07/13/2018 21:00 115.73 0.00 -- 68.0 -- 0.0
07/13/2018 20:00 115.73 0.00 -- 70.0 -- 0.0
07/13/2018 19:00 115.73 0.00 -- 73.0 -- 0.0
07/13/2018 18:00 115.73 0.00 -- 75.0 -- 0.0
07/13/2018 17:00 115.73 0.00 -- 77.0 -- 0.0
07/13/2018 16:00 115.73 0.00 -- 79.0 -- 0.0
07/13/2018 15:00 115.74 0.00 -- 80.0 -- 0.0
07/13/2018 14:00 115.75 0.00 -- 80.0 -- 0.3
07/13/2018 13:00 115.75 0.00 -- 79.0 -- 0.3
07/13/2018 12:00 115.75 0.00 -- 77.0 -- 0.8
07/13/2018 11:00 115.75 0.00 -- 74.0 -- 0.8
07/13/2018 10:00 115.75 0.00 -- 73.0 -- 1.0
07/13/2018 09:00 115.75 0.00 -- 69.0 -- 1.0
07/13/2018 08:00 115.75 0.00 -- 62.0 -- 1.0
07/13/2018 07:00 115.75 0.00 -- 60.0 -- 1.0
07/13/2018 06:00 115.75 0.00 -- 58.0 -- 1.0
07/13/2018 05:00 115.75 0.00 -- 60.0 -- 1.0
07/13/2018 04:00 115.75 0.00 -- 61.0 -- 1.0
07/13/2018 03:00 115.75 0.00 -- 62.0 -- 1.0
07/13/2018 02:00 115.75 0.00 -- 64.0 -- 1.0
07/13/2018 01:00 115.76 0.00 -- 64.0 -- 1.0
07/13/2018 00:00 115.76 0.00 0.00 64.0 -- 1.0
07/12/2018 23:00 115.76 0.00 -- 65.0 -- 1.0
07/12/2018 22:00 115.76 0.00 -- 68.0 -- 1.0
07/12/2018 21:00 115.75 0.00 -- 71.0 -- 1.0
07/12/2018 20:00 115.76 0.00 -- 74.0 -- 1.0
07/12/2018 19:00 115.75 0.00 -- 77.0 -- 1.0
07/12/2018 18:00 115.75 0.00 -- 79.0 -- 1.0
07/12/2018 17:00 115.76 0.00 -- 78.0 -- 1.0
07/12/2018 16:00 115.76 0.00 -- 77.0 -- 1.0
07/12/2018 15:00 115.76 0.00 -- 77.0 -- 1.3
07/12/2018 14:00 115.76 0.00 -- 76.0 -- 1.3
07/12/2018 13:00 115.77 0.00 -- 76.0 -- 1.0
07/12/2018 12:00 115.77 0.00 -- 76.0 -- 1.8
07/12/2018 11:00 115.77 0.00 -- 74.0 -- 2.0
07/12/2018 10:00 115.78 0.00 -- 71.0 -- 2.0
07/12/2018 09:00 115.77 0.00 -- 67.0 -- 2.0
07/12/2018 08:00 115.77 0.00 -- 61.0 -- 2.0
07/12/2018 07:00 115.78 0.00 -- 56.0 -- 2.0
07/12/2018 06:00 115.78 0.00 -- 56.0 -- 2.0
07/12/2018 05:00 115.78 0.00 -- 57.0 -- 2.0
07/12/2018 04:00 115.78 0.00 -- 59.0 -- 2.0
07/12/2018 03:00 115.78 0.00 -- 59.0 -- 2.0
07/12/2018 02:00 115.78 0.00 -- 59.0 -- 2.0
07/12/2018 01:00 115.78 0.00 -- 60.0 -- 2.0
07/12/2018 00:00 115.78 0.00 0.00 61.0 -- 2.0
07/11/2018 23:00 115.78 0.00 -- 62.0 -- 2.0
07/11/2018 22:00 115.78 0.00 -- 65.0 -- 2.0
07/11/2018 21:00 115.78 0.00 -- 69.0 -- 2.0
07/11/2018 20:00 115.78 0.00 -- 71.0 -- 2.0
07/11/2018 19:00 115.78 0.00 -- 73.0 -- 2.0
07/11/2018 18:00 115.78 0.00 -- 74.0 -- 2.0
07/11/2018 17:00 115.77 0.00 -- 73.0 -- 2.0
07/11/2018 16:00 115.77 0.00 -- 74.0 -- 2.0
07/11/2018 15:00 115.78 0.00 -- 74.0 -- 2.0
07/11/2018 14:00 115.79 0.00 -- 74.0 -- 2.5
07/11/2018 13:00 115.79 0.00 -- 75.0 -- 2.8
07/11/2018 12:00 115.79 0.00 -- 75.0 -- 3.0
07/11/2018 11:00 115.79 0.00 -- 74.0 -- 3.0
07/11/2018 10:00 115.80 0.00 -- 72.0 -- 3.5
07/11/2018 09:00 115.80 0.00 -- 71.0 -- 4.0
07/11/2018 08:00 115.80 0.00 -- 69.0 -- 3.8
07/11/2018 07:00 115.80 0.00 -- 65.0 -- 3.3
07/11/2018 06:00 115.80 0.00 -- 67.0 -- 3.0
07/11/2018 05:00 115.80 0.00 -- 68.0 -- 3.0
07/11/2018 04:00 115.80 0.00 -- 70.0 -- 4.0
07/11/2018 03:00 115.80 0.00 -- 71.0 -- 4.0
07/11/2018 02:00 115.80 0.00 -- 71.0 -- 3.8
07/11/2018 01:00 115.80 0.00 -- 72.0 -- 3.5
07/11/2018 00:00 115.80 0.00 0.00 74.0 -- 4.0
07/10/2018 23:00 115.80 0.00 -- 78.0 -- 4.0
07/10/2018 22:00 115.80 0.00 -- 80.0 -- 4.0
07/10/2018 21:00 115.80 0.00 -- 81.0 -- 4.0
07/10/2018 20:00 115.81 0.00 -- 85.0 -- 4.5
07/10/2018 19:00 115.81 0.00 -- 89.0 -- 5.0
07/10/2018 18:00 115.82 0.00 -- 91.0 -- 5.0
07/10/2018 17:00 115.82 0.00 -- 91.0 -- 4.8
07/10/2018 16:00 115.81 0.00 -- 90.0 -- 5.0
07/10/2018 15:00 115.82 0.00 -- 88.0 -- 5.3
07/10/2018 14:00 115.82 0.00 -- 87.0 -- 5.3
07/10/2018 13:00 115.81 0.00 -- 86.0 -- 5.3
07/10/2018 12:00 115.82 0.00 -- 83.0 -- 5.0
07/10/2018 11:00 115.82 0.00 -- 81.0 -- 5.8
07/10/2018 10:00 115.81 0.00 -- 78.0 -- 5.3
07/10/2018 09:00 115.81 0.00 -- 74.0 -- 5.0
07/10/2018 08:00 115.81 0.00 -- 69.0 -- 5.0
07/10/2018 07:00 115.82 0.00 -- 66.0 -- 5.0
07/10/2018 06:00 115.81 0.00 -- 67.0 -- 5.0
07/10/2018 05:00 115.81 0.00 -- 68.0 -- 5.0
07/10/2018 04:00 115.81 0.00 -- 69.0 -- 5.0
07/10/2018 03:00 115.82 0.00 -- 70.0 -- 5.0
07/10/2018 02:00 115.81 0.00 -- 72.0 -- 5.0
07/10/2018 01:00 115.81 0.00 -- 73.0 -- 5.0
07/10/2018 00:00 115.81 0.00 0.00 72.0 -- 4.8
07/09/2018 23:00 115.82 0.00 -- 74.0 -- 5.0
07/09/2018 22:00 115.82 0.00 -- 77.0 -- 5.0
07/09/2018 21:00 115.82 0.00 -- 80.0 -- 5.0
07/09/2018 20:00 115.82 0.00 -- 85.0 -- 6.0
07/09/2018 19:00 115.83 0.00 -- 88.0 -- 6.3
07/09/2018 18:00 115.83 0.00 -- 89.0 -- 6.3
07/09/2018 17:00 115.83 0.00 -- 88.0 -- 6.3
07/09/2018 16:00 115.83 0.00 -- 87.0 -- 6.3
07/09/2018 15:00 115.82 0.00 -- 85.0 -- 6.3
07/09/2018 14:00 115.83 0.00 -- 84.0 -- 6.5
07/09/2018 13:00 115.83 0.00 -- 83.0 -- 7.0
07/09/2018 12:00 115.82 0.00 -- 80.0 -- 6.8
07/09/2018 11:00 115.83 0.00 -- 78.0 -- 6.5
07/09/2018 10:00 115.83 0.00 -- 74.0 -- 6.8
07/09/2018 09:00 115.83 0.00 -- 70.0 -- 6.3
07/09/2018 08:00 115.83 0.00 -- 65.0 -- 6.5
07/09/2018 07:00 115.83 0.00 -- 62.0 -- 6.8
07/09/2018 06:00 115.83 0.00 -- 61.0 -- 6.5
07/09/2018 05:00 115.83 0.00 -- 63.0 -- 6.0
07/09/2018 04:00 115.83 0.00 -- 64.0 -- 6.5
07/09/2018 03:00 115.83 0.00 -- 64.0 -- 6.0
07/09/2018 02:00 115.83 0.00 -- 66.0 -- 6.3
07/09/2018 01:00 115.83 0.00 -- 66.0 -- 6.3
07/09/2018 00:00 115.83 0.00 0.00 66.0 -- 6.0
07/08/2018 23:00 115.83 0.00 -- 68.0 -- 6.5
07/08/2018 22:00 115.83 0.00 -- 69.0 -- 6.0
07/08/2018 21:00 115.83 0.00 -- 72.0 -- 6.5
07/08/2018 20:00 115.83 0.00 -- 76.0 -- 6.0
07/08/2018 19:00 115.83 0.00 -- 80.0 -- 6.3
07/08/2018 18:00 115.83 0.00 -- 82.0 -- 7.0
07/08/2018 17:00 115.84 0.00 -- 83.0 -- 7.0
07/08/2018 16:00 -- -- -- 83.0 -- 6.8
07/08/2018 15:00 -- -- -- 81.0 -- 7.8
07/08/2018 14:00 -- -- -- 79.0 -- 7.8
07/08/2018 13:00 -- -- -- 79.0 -- 8.0
07/08/2018 12:00 -- -- -- 78.0 -- 7.8
07/08/2018 11:00 -- -- -- 75.0 -- 7.8
07/08/2018 10:00 -- -- -- 71.0 -- 8.0
07/08/2018 09:00 -- -- -- 67.0 -- 8.0
07/08/2018 08:00 -- -- -- 58.0 -- 7.8
07/08/2018 07:00 -- -- -- 55.0 -- 8.0
07/08/2018 06:00 -- -- -- 54.0 -- 8.0
07/08/2018 05:00 -- -- -- 54.0 -- 8.0
07/08/2018 04:00 -- -- -- 55.0 -- 8.0
07/08/2018 03:00 -- -- -- 57.0 -- 8.0
07/08/2018 02:00 -- -- -- 59.0 -- 7.8
07/08/2018 01:00 -- -- -- 60.0 -- 8.0
07/08/2018 00:00 -- -- 0.00 60.0 -- 8.0